This demonstration page uses our WeatherBlox Daily Observations layout. Learn more.

Left ArrowRight Arrow

41.86663, -103.66717

Hourly Observations for April 28, 2017

Temp ( °F °C ) Dew Point ( °F °C ) Humidity (%) Winds ( mph kmh ) Pressure ( in mb ) Visibility ( mi km ) Precip ( " mm )
12:50 am 00:50 Cloudy 43 6 37 3 81 81 ESE 13 20 29.65 1004 10 16.0934 N/A
12:53 am 00:53 Cloudy 42 5.6 38 3.3 85 85 ESE 13 20 29.6 1002 10 16.0934 N/A
1:53 am 01:53 Cloudy 41 5 38 3.3 89 89 ESE 13 20 29.59 1002 10 16.0934 N/A
2:03 am 02:03 Cloudy 41 5 37 3 87 87 ESE 14 22 29.62 1003 10 16.0934 N/A
2:17 am 02:17 Cloudy 41 5 38 3.3 89 89 ESE 16 26 29.62 1003 10 16.0934 N/A
2:27 am 02:27 Cloudy 40 4.4 37 2.8 89 89 ESE 16 26 29.62 1003 10 16.0934 N/A
2:53 am 02:53 Cloudy 39 3.9 37 2.8 93 93 ESE 14 22 29.59 1002 10 16.0934 N/A
3:53 am 03:53 Cloudy with Light Rain 37 2.8 34 1.1 89 89 ESE 16 26 29.61 1003 10 16.0934 N/A
4:38 am 04:38 Cloudy with Light Snow 34 1 32 undefined 93 93 E 12 19 29.71 1006 2 3.21868 N/A
4:53 am 04:53 Cloudy with Light Snow 34 1.1 32 undefined 92 92 E 10 17 29.65 1004 2 3.21868 0.03 0.762
5:03 am 05:03 Cloudy with Light Snow 34 1 32 undefined 93 93 E 10 17 29.71 1006 2 3.21868 N/A
5:23 am 05:23 Cloudy with Light Snow 34 1.1 32 undefined 92 92 ENE 9 15 29.74 1007 3 4.82802 0.02 0.508
5:35 am 05:35 Cloudy with Light Snow 34 1.1 32 undefined 92 92 E 9 15 29.74 1007 2.5 4.02335 0.03 0.762
5:48 am 05:48 Cloudy with Light Snow 34 1 32 undefined 93 93 E 10 17 29.74 1007 1.5 2.41401 N/A
5:53 am 05:53 Cloudy with Light Snow 33 0.6 31 -0.6 92 92 E 10 17 29.66 1005 1.5 2.41401 0.04 1.016
6:20 am 06:20 Mostly Cloudy with Light Snow 34 1 30 -1 87 87 E 10 17 29.74 1007 0.75 1.207005 N/A
6:29 am 06:29 Mostly Cloudy with Heavy Snow 33 0.6 31 -0.6 92 92 E 12 19 29.77 1008 0.25 0.402335 0.06 1.524
6:34 am 06:34 Mostly Cloudy with Snow 34 1 30 -1 87 87 E 10 17 29.74 1007 0.5 0.80467 N/A
6:53 am 06:53 Mostly Cloudy with Snow 33 0.6 31 -0.6 92 92 E 9 15 29.69 1006 0.5 0.80467 0.09 2.286
7:53 am 07:53 Mostly Cloudy with Snow 33 0.6 32 undefined 96 96 E 9 15 29.73 1007 0.5 0.80467 0.06 1.524
8:53 am 08:53 Mostly Cloudy with Light Snow 34 1.1 32 undefined 92 92 E 8 13 29.75 1008 0.75 1.207005 0.05 1.27
9:21 am 09:21 Cloudy with Light Snow 34 1.1 32 undefined 92 92 E 10 17 29.83 1010 0.75 1.207005 0.02 0.508
9:53 am 09:53 Cloudy with Snow 34 1.1 31 -0.6 89 89 E 16 26 29.78 1009 0.5 0.80467 0.04 1.016
10:10 am 10:10 Cloudy with Snow 34 1.1 32 undefined 92 92 E 16 26 29.85 1011 0.5 0.80467 0.01 0.254
10:22 am 10:22 Cloudy with Snow 34 1 30 -1 87 87 E 18 30 29.85 1011 0.5 0.80467 N/A
10:31 am 10:31 Cloudy with Snow 34 1.1 31 -0.6 89 89 E 21 33 29.88 1012 0.25 0.402335 0.02 0.508
10:53 am 10:53 Mostly Cloudy with Heavy Snow 34 1.1 31 -0.6 89 89 E 17 28 29.82 1010 0.25 0.402335 0.05 1.27
11:10 am 11:10 Mostly Cloudy with Snow 34 1 30 -1 87 87 E 17 28 29.88 1012 0.5 0.80467 N/A
11:53 am 11:53 Cloudy with Snow 34 1.1 31 -0.6 89 89 E 18 30 29.85 1011 0.5 0.80467 0.03 0.762
12:22 pm 12:22 Cloudy with Snow 34 1 30 -1 87 87 E 21 33 29.91 1013 0.5 0.80467 N/A
12:53 pm 12:53 Cloudy with Snow 34 1.1 32 undefined 92 92 E 17 28 29.88 1012 0.5 0.80467 0.02 0.508
1:11 pm 13:11 Cloudy with Snow 33 0.6 31 -0.6 92 92 E 22 35 29.97 1015 0.5 0.80467 N/A
1:36 pm 13:36 Cloudy with Snow 34 1.1 31 -0.6 89 89 E 17 28 30 1016 0.5 0.80467 0.02 0.508
1:53 pm 13:53 Cloudy with Light Snow 34 1.1 31 -0.6 89 89 ENE 15 24 29.92 1013 1.5 2.41401 0.02 0.508
2:15 pm 14:15 Windy with Snow Likely 34 1.1 31 -0.6 89 89 ENE 20 31 30.03 1017 2 3.21868 0.01 0.254
2:21 pm 14:21 Windy with Snow Likely 34 1.1 30 -1.1 85 85 ENE 20 31 30.03 1017 1.75 2.816345 0.01 0.254
2:44 pm 14:44 Cloudy with Light Snow 34 1 30 -1 87 87 ENE 18 30 30.03 1017 0.75 1.207005 N/A
2:53 pm 14:53 Mostly Cloudy with Light Snow 34 1.1 31 -0.6 89 89 ENE 18 30 29.95 1014 0.75 1.207005 0.01 0.254
2:56 pm 14:56 Mostly Cloudy with Light Snow 34 1 30 -1 87 87 ENE 20 31 30.03 1017 1 1.60934 N/A
3:07 pm 15:07 Windy with Snow Likely 34 1.1 31 -0.6 89 89 ENE 21 33 30.03 1017 0.75 1.207005 0.01 0.254
3:45 pm 15:45 Cloudy with Light Snow 34 1.1 31 -0.6 89 89 ENE 17 28 30.03 1017 0.75 1.207005 0.02 0.508
3:53 pm 15:53 Cloudy with Light Snow 34 1.1 31 -0.6 89 89 ENE 18 30 29.99 1016 0.75 1.207005 0.03 0.762
4:03 pm 16:03 Cloudy with Light Snow 34 1 32 undefined 93 93 ENE 14 22 30.03 1017 1 1.60934 N/A
4:12 pm 16:12 Cloudy with Light Snow 34 1 30 -1 87 87 ENE 17 28 30.06 1018 3 4.82802 N/A
4:22 pm 16:22 Cloudy with Light Snow 36 2 30 -1 81 81 ENE 16 26 30.03 1017 2.5 4.02335 N/A
4:32 pm 16:32 Cloudy with Light Snow 36 2 30 -1 81 81 ENE 14 22 30.03 1017 1.75 2.816345 N/A
4:43 pm 16:43 Cloudy with Light Snow 35 1.7 31 -0.6 85 85 NE 10 17 30.09 1019 1.75 2.816345 N/A
4:53 pm 16:53 Cloudy with Light Snow 34 1.1 31 -0.6 89 89 NE 10 17 30.05 1018 1 1.60934 N/A
5:07 pm 17:07 Cloudy with Light Snow 34 1.1 31 -0.6 89 89 NE 9 15 30.09 1019 1 1.60934 0.01 0.254
5:16 pm 17:16 Cloudy with Light Snow 34 1.1 32 undefined 92 92 NE 8 13 30.09 1019 0.75 1.207005 0.02 0.508
5:27 pm 17:27 Cloudy with Light Snow 35 1.7 32 undefined 89 89 NNE 7 11 30.09 1019 1.25 2.011675 0.02 0.508
5:30 pm 17:30 Cloudy with Light Snow 36 2 32 undefined 87 87 NNE 7 11 30.09 1019 1.5 2.41401 N/A
5:53 pm 17:53 Cloudy with Light Snow 34 1.1 32 undefined 92 92 N 5 7 30.08 1019 1.75 2.816345 0.03 0.762
6:15 pm 18:15 Cloudy with Light Snow 34 1.1 32 undefined 92 92 N 6 9 30.12 1020 0.75 1.207005 0.01 0.254
6:27 pm 18:27 Cloudy with Snow 34 1.1 31 -0.6 89 89 N 7 11 30.12 1020 0.5 0.80467 0.02 0.508
6:39 pm 18:39 Cloudy with Light Snow 34 1.1 31 -0.6 89 89 N 9 15 30.15 1021 1.5 2.41401 0.02 0.508
6:51 pm 18:51 Cloudy with Light Snow 34 1 30 -1 87 87 NNE 9 15 30.15 1021 2 3.21868 0.03 0.762
6:53 pm 18:53 Cloudy with Light Snow 34 1.1 31 -0.6 89 89 NNE 10 17 30.11 1020 1.75 2.816345 0.03 0.762
7:13 pm 19:13 Cloudy with Light Snow 34 1.1 31 -0.6 89 89 NNE 8 13 30.15 1021 1.25 2.011675 N/A
7:28 pm 19:28 Cloudy with Light Snow 34 1 30 -1 87 87 N 7 11 30.15 1021 1.5 2.41401 N/A
7:35 pm 19:35 Cloudy with Light Snow 34 1.1 31 -0.6 89 89 N 8 13 30.15 1021 2 3.21868 0.01 0.254
7:46 pm 19:46 Cloudy with Light Snow 34 1.1 31 -0.6 89 89 NNE 9 15 30.15 1021 3 4.82802 0.01 0.254
7:53 pm 19:53 Cloudy with Light Snow 34 1.1 31 -0.6 89 89 NNE 10 17 30.13 1020 3 4.82802 0.01 0.254
8:14 pm 20:14 Cloudy with Light Snow 34 1 30 -1 87 87 NNE 10 17 30.21 1023 5 8.0467 N/A
8:53 pm 20:53 Cloudy 34 1.1 32 undefined 92 92 NNE 5 7 30.19 1022 10 16.0934 0.01 0.254
9:09 pm 21:09 Cloudy 35 1.7 32 undefined 89 89 N N/A 30.21 1023 10 16.0934 N/A
9:53 pm 21:53 Cloudy 34 1.1 32 undefined 92 92 W 3 6 30.21 1023 10 16.0934 N/A
10:53 pm 22:53 Cloudy with Mist and Fog 34 1.1 32 undefined 92 92 NW 6 9 30.17 1022 6 9.65604 N/A
11:53 pm 23:53 Cloudy 34 1.1 31 -0.6 89 89 SW 5 7 30.21 1023 9 14.48406 N/A

Powered by AerisWeather